Theta_e
320 321 323 326 327 326 325 324 327 328 329 331 330 329 329 330 331 329 325 323 324 325 326 325 325 325 325 326 324 323 321 318 318 319 319 320 319 318 318 318 319 320 319 317 316 317 317 318 317 316 316 315 316 318 319 320 320 318 319 320 320 318 317 317 317 316 317 319 321 322 323 322 322 323 323 322 322 321 320 319 319 318 318 318 318 319
320 322 323 323 324 324 324 325 326 328 328 329 330 330 330 331 331 326 322 321 322 323 325 325 325 325 325 325 324 324 323 320 318 318 318 319 319 319 318 317 317 318 318 317 316 316 317 317 316 316 316 315 315 315 316 317 317 317 317 318 319 318 317 316 316 315 315 315 316 318 319 320 321 321 321 320 319 320 320 320 319 319 318 318 318 318
321 323 322 322 323 323 324 325 326 327 328 330 331 331 331 331 331 323 317 317 318 320 324 324 324 324 323 324 323 322 322 323 322 320 320 320 320 320 320 318 317 317 317 317 317 316 316 316 316 316 316 315 315 315 315 315 315 316 316 316 317 317 316 315 315 314 315 315 316 316 316 318 319 320 320 319 319 319 319 319 319 319 319 319 319 319
322 322 322 323 324 324 325 325 326 327 328 330 330 331 331 331 333 326 318 317 317 319 322 321 321 321 321 323 322 321 320 321 322 322 322 322 321 321 321 321 319 319 318 318 318 317 316 316 315 315 315 315 315 314 315 315 314 315 315 315 316 316 316 315 315 315 315 315 316 317 317 318 319 320 320 321 320 320 320 319 318 318 319 319 320 320
322 322 322 323 323 324 326 326 326 327 329 331 331 331 331 331 332 326 320 318 316 318 318 318 323 323 323 324 323 322 321 320 320 321 321 321 321 321 321 322 322 321 321 319 319 318 317 316 315 315 315 315 315 315 315 314 314 314 314 315 315 315 316 315 315 315 316 316 316 317 318 319 320 320 320 320 320 319 318 318 317 317 318 318 319 320
323 323 323 324 323 325 327 326 328 328 329 330 329 330 330 331 329 322 321 322 321 324 320 319 329 332 328 327 326 325 324 322 321 320 320 320 320 320 320 321 322 323 323 320 319 319 318 317 316 316 315 316 315 315 315 315 314 314 314 314 314 314 315 315 315 315 316 317 316 317 317 317 318 318 317 317 316 315 315 315 315 316 316 317 317 318
323 323 324 324 325 326 328 327 328 328 328 329 329 329 329 330 329 324 323 326 328 328 321 320 329 331 327 325 325 326 326 325 324 322 321 320 320 320 319 319 319 321 323 321 319 319 319 318 317 316 316 316 316 315 315 315 315 315 315 314 314 314 314 315 315 315 316 316 316 316 316 315 315 314 314 313 313 314 314 314 314 315 316 316 316 316
324 324 325 325 326 327 327 327 327 327 328 329 329 329 329 329 329 326 325 327 329 326 321 319 323 326 326 323 323 324 324 325 325 325 324 321 320 319 319 319 318 319 321 321 320 319 319 319 318 318 317 316 316 316 316 315 315 315 315 315 314 315 314 314 315 315 315 315 315 316 316 316 315 314 314 314 315 316 316 317 316 315 316 316 316 315
323 326 325 325 326 327 326 327 327 327 327 327 327 328 329 327 328 326 325 325 327 327 325 321 320 325 326 323 322 324 323 323 324 325 325 322 320 320 319 319 318 318 319 320 321 320 320 320 319 321 321 318 317 317 317 316 315 315 315 315 315 315 315 314 315 315 315 314 314 314 315 315 315 315 315 316 317 318 318 319 317 316 316 316 316 315
323 324 324 325 325 325 326 326 327 327 325 324 325 326 326 326 326 324 324 325 325 325 326 324 322 325 328 325 324 325 324 323 323 324 324 321 321 321 320 319 318 318 318 319 320 320 321 321 321 321 321 319 318 317 317 316 315 315 314 314 314 315 315 315 315 314 315 314 314 314 314 314 314 315 316 317 318 318 319 319 318 317 317 315 315 315
318 320 322 324 324 324 325 325 326 326 323 321 323 324 324 324 323 322 323 323 325 325 325 325 323 324 328 328 325 325 326 324 323 323 323 322 321 321 320 320 319 319 318 318 318 319 319 320 320 319 318 317 317 316 317 317 316 315 314 314 314 315 315 315 314 314 314 314 314 314 314 313 313 315 317 318 318 319 320 319 319 319 318 317 316 315
318 320 322 321 321 323 324 324 323 322 320 321 322 322 323 323 322 322 322 322 326 327 324 324 324 323 326 328 326 326 325 323 323 323 324 323 321 321 320 320 319 319 318 318 318 317 318 318 318 318 317 315 315 315 316 317 317 315 315 315 315 315 315 315 314 315 314 314 314 314 315 314 314 315 316 317 317 318 320 319 320 320 320 320 318 317
320 322 322 320 319 321 323 322 321 320 320 322 322 322 326 325 324 325 324 323 326 326 320 320 324 325 324 324 325 325 323 322 321 321 322 322 321 320 320 319 319 319 318 318 318 317 317 317 317 317 317 315 314 315 315 316 316 315 315 315 315 315 315 314 314 314 314 314 314 315 315 314 315 316 316 316 316 317 318 318 319 319 319 320 319 318
320 322 321 320 318 319 322 322 320 321 320 321 321 323 328 327 325 327 326 326 327 324 318 318 324 326 324 322 322 322 322 321 319 319 319 319 319 319 318 318 319 318 318 318 317 317 316 316 315 315 315 314 314 314 314 315 315 315 315 315 314 315 314 314 313 313 314 314 314 315 315 315 316 316 316 315 315 315 315 316 317 318 318 319 318 318
322 323 320 319 320 319 321 321 321 321 320 321 322 323 326 327 327 328 327 328 329 323 317 319 325 328 326 324 321 319 319 319 318 319 319 318 318 317 317 317 317 317 317 316 315 314 314 313 314 314 313 313 313 313 313 314 314 314 314 314 314 314 313 313 313 312 313 313 313 314 314 315 315 316 315 315 315 315 315 315 317 318 318 318 317 317
323 324 319 318 318 318 321 321 319 320 321 322 322 323 325 326 326 326 324 324 326 324 320 321 326 326 323 321 318 317 318 316 316 317 317 318 317 316 317 316 316 316 315 314 314 314 314 314 313 313 313 313 313 313 313 313 313 313 313 313 313 313 313 313 313 313 313 313 312 312 313 313 314 315 315 315 315 316 317 318 319 318 318 318 317 317
323 323 319 316 316 317 321 321 318 321 322 321 322 322 323 324 323 324 323 319 321 326 324 321 323 322 319 320 320 319 320 317 316 316 316 317 317 316 316 315 315 314 314 314 315 315 314 314 313 312 312 313 313 313 314 313 313 313 313 313 313 313 313 313 313 313 313 313 312 312 312 312 313 314 314 314 314 316 317 318 318 317 316 316 316 317
322 320 317 317 318 317 317 319 319 319 320 321 323 321 322 324 322 320 322 322 322 325 325 323 323 322 321 324 323 320 320 318 317 317 315 315 316 316 315 315 314 314 314 314 315 315 314 314 313 313 312 312 313 313 313 313 313 313 313 312 313 313 313 313 312 312 312 312 312 312 311 311 312 312 312 312 313 313 314 314 314 315 315 315 316 317
321 319 316 316 318 317 316 319 321 318 316 319 321 320 321 325 323 320 321 325 325 324 325 326 324 323 322 322 322 321 320 319 318 317 316 316 315 315 315 315 314 314 315 314 314 314 314 314 313 313 313 313 313 313 312 313 313 312 312 312 312 312 312 312 312 312 312 312 312 312 311 311 311 311 311 311 311 311 311 311 312 314 315 316 317 318
320 321 317 315 316 317 317 319 321 320 317 316 318 320 321 322 323 322 321 324 326 324 326 327 324 326 324 319 321 323 320 318 317 318 319 316 314 315 315 315 315 315 316 315 315 314 314 314 313 313 313 313 312 312 312 312 312 312 312 312 312 312 312 312 312 312 312 312 312 312 312 312 312 311 311 311 311 310 310 311 312 313 315 317 319 320
320 321 318 315 315 316 319 319 319 320 318 316 318 321 320 320 321 322 320 322 323 323 325 325 324 328 325 318 320 321 319 319 318 320 322 317 315 316 316 316 316 317 316 316 315 314 313 313 313 313 313 312 312 312 312 312 312 312 312 312 312 312 312 312 312 312 312 312 312 312 312 312 312 312 312 312 311 311 311 311 311 313 315 318 322 323
321 321 318 314 314 316 318 318 318 320 318 317 318 320 319 319 320 322 322 321 320 321 324 323 324 329 325 318 319 319 320 320 318 319 321 318 316 317 316 315 315 315 315 315 314 314 313 313 313 312 312 312 312 312 312 312 312 312 312 312 312 312 312 312 312 312 312 311 311 311 311 311 311 311 311 311 312 311 312 312 312 313 315 318 321 323
321 319 316 314 315 316 317 316 316 319 319 317 317 319 320 319 319 321 323 323 321 321 320 319 322 327 325 321 321 320 319 318 316 318 318 316 316 315 314 314 313 313 312 312 313 314 313 312 312 312 312 312 312 312 312 312 312 312 312 312 312 312 312 312 312 312 312 312 312 312 311 311 311 311 311 311 311 311 311 311 312 313 314 315 317 319
319 318 316 315 315 314 315 314 314 315 318 318 317 318 319 319 318 319 320 321 321 321 320 319 321 323 323 323 320 316 315 314 315 317 316 315 315 314 313 313 312 312 312 312 312 313 312 312 312 312 312 312 312 312 312 312 312 312 311 311 312 311 312 311 312 312 311 311 312 312 312 312 312 312 312 312 311 311 311 311 311 311 312 312 313 314
321 319 316 316 317 316 316 316 315 314 315 317 317 317 318 319 319 320 319 318 320 323 322 320 321 321 321 321 317 314 315 315 314 314 315 315 314 313 313 313 312 312 312 312 312 312 312 312 312 312 312 312 312 312 311 311 311 311 311 311 311 311 311 311 311 311 311 311 311 311 312 312 312 312 312 312 312 312 312 311 311 310 310 310 311 311
321 320 317 318 319 319 318 318 318 316 315 316 317 317 318 319 319 320 319 317 320 323 322 320 320 319 317 316 316 316 316 315 313 312 313 313 313 313 313 312 312 312 311 312 312 311 312 312 312 312 311 312 311 311 312 311 311 311 311 311 311 312 311 311 311 311 311 311 311 311 311 311 311 311 312 312 312 312 312 312 311 311 310 310 310 310
322 320 318 319 320 320 319 319 319 317 316 316 317 317 318 318 319 319 319 318 318 320 321 320 319 318 317 316 316 316 315 315 314 312 311 312 313 313 312 311 311 311 311 311 311 311 312 311 311 312 311 312 312 312 312 312 312 312 312 312 312 312 312 311 311 311 311 311 311 311 311 311 311 311 310 311 312 312 313 312 312 311 310 310 310 310
324 321 319 319 320 319 319 319 319 318 317 317 317 317 317 317 319 320 319 319 318 318 320 320 318 319 318 317 317 317 316 316 316 312 311 312 312 312 312 311 311 311 311 311 311 311 311 311 312 312 312 312 312 312 312 313 313 313 313 313 313 312 312 312 312 312 312 312 312 311 311 311 311 311 311 310 311 312 312 313 312 312 311 310 310 310
322 321 320 320 320 320 320 320 319 318 317 317 316 317 317 317 318 319 319 318 318 318 319 318 319 319 317 316 317 317 315 315 314 313 312 312 313 312 312 311 311 311 311 311 311 311 311 312 312 312 312 313 312 312 313 313 313 313 313 313 313 313 312 312 312 312 312 312 312 312 311 311 311 311 311 310 311 311 312 313 312 312 311 310 310 310
320 321 321 320 320 322 321 320 319 318 318 317 316 316 317 317 317 317 318 317 317 318 317 317 320 320 318 317 318 315 314 314 313 313 313 313 313 312 312 312 311 311 311 311 312 312 312 312 312 312 312 312 312 312 312 312 312 312 312 312 313 313 312 312 312 312 312 312 312 312 311 311 311 311 311 311 311 311 312 313 313 312 312 311 310 309
320 322 321 320 320 322 322 321 320 319 318 318 317 316 317 317 317 317 317 317 317 317 317 317 319 318 317 318 317 314 314 314 313 313 313 313 313 312 312 312 311 311 311 311 312 312 312 312 312 312 312 312 312 312 312 312 312 312 312 312 312 312 312 312 312 312 312 312 311 311 311 311 311 311 311 311 311 311 312 313 313 313 312 311 311 309
320 322 322 321 321 321 322 322 321 319 319 319 318 317 317 317 317 317 317 317 317 317 317 317 318 317 317 319 317 315 314 313 312 312 313 313 313 312 312 312 311 311 311 311 312 312 312 312 312 312 312 312 312 311 312 312 312 312 312 312 312 312 312 312 312 312 311 311 311 311 311 311 311 311 311 310 310 311 312 313 313 313 312 312 311 310
319 321 321 321 321 322 321 321 321 320 320 319 318 317 317 317 317 317 317 317 316 316 317 317 317 316 318 320 319 318 318 316 312 311 313 313 312 312 312 312 311 311 311 312 312 312 312 312 312 312 312 312 312 311 311 311 311 312 311 312 312 312 311 312 312 311 311 311 311 311 311 311 311 311 310 310 310 311 312 312 313 312 312 312 311 310
318 320 320 320 321 322 321 319 320 321 321 321 319 317 316 316 317 317 317 317 316 316 316 316 316 316 317 320 320 319 318 316 313 313 314 313 313 312 312 312 312 311 312 312 312 312 312 312 312 312 312 312 312 312 311 311 311 311 311 311 312 311 312 311 311 311 311 311 311 311 311 311 311 311 311 310 310 310 311 311 312 312 312 312 311 310
317 318 319 320 321 321 319 318 320 321 321 321 320 318 316 316 316 317 317 316 316 316 316 316 316 316 317 317 318 317 316 316 315 315 314 314 313 312 312 312 312 312 312 312 313 313 312 312 312 312 312 312 312 311 311 311 311 311 311 311 311 312 312 311 311 311 311 311 311 311 311 311 310 310 310 310 310 310 310 311 311 312 312 312 312 311
317 317 318 320 319 318 318 318 321 323 320 319 319 318 316 316 316 317 318 317 316 316 316 316 316 316 316 316 316 316 317 317 316 316 316 315 314 312 312 312 312 312 313 313 313 313 313 312 312 312 312 312 312 311 311 311 311 311 311 311 311 312 311 311 311 311 311 311 311 311 311 311 311 310 310 310 310 310 310 310 310 311 311 312 312 312
315 317 318 319 318 318 318 319 321 323 321 318 317 317 317 317 317 317 318 318 316 316 317 317 316 316 316 316 316 316 316 316 316 316 316 316 314 313 313 312 313 313 314 315 314 313 314 314 313 312 312 312 312 312 312 311 311 310 311 311 311 311 311 311 311 311 311 311 310 310 310 310 310 310 310 310 310 310 310 310 310 310 311 311 311 311
313 315 317 319 319 317 318 319 320 322 323 320 317 316 317 316 316 317 318 318 317 317 317 316 317 317 316 316 316 315 316 317 317 315 315 315 315 314 314 314 314 315 315 315 315 314 314 314 313 312 312 312 312 312 312 311 311 310 311 311 311 311 311 311 311 311 311 310 310 310 310 310 310 310 310 310 310 310 310 310 310 310 310 311 311 311
311 311 313 316 318 318 318 320 320 321 323 321 318 317 316 315 316 317 318 318 318 316 316 316 317 317 316 316 314 314 316 318 317 315 314 315 315 315 315 315 315 315 315 315 315 315 315 315 314 313 312 312 312 312 312 312 311 310 311 311 311 311 311 311 311 311 310 310 310 310 310 310 310 310 311 310 310 310 310 310 310 310 310 310 310 310
311 311 311 313 316 318 319 320 320 320 321 320 319 317 315 314 315 319 320 320 318 316 316 316 316 316 316 315 313 313 315 317 316 314 314 315 316 315 315 315 315 315 315 315 315 315 314 314 314 313 313 313 313 312 312 312 311 311 311 311 311 311 311 311 310 310 310 310 310 310 310 311 310 310 310 310 310 310 310 310 309 309 309 310 310 310
312 311 312 313 315 316 318 319 321 320 320 320 319 315 313 315 318 320 321 320 317 316 316 316 316 316 315 315 313 314 315 316 315 315 315 315 316 315 315 315 315 316 316 315 315 314 314 314 313 313 313 313 313 313 312 311 311 311 311 311 311 311 311 310 310 310 310 310 310 310 310 310 310 310 310 310 310 309 309 309 309 309 309 309 309 310
313 313 313 314 315 316 317 318 319 320 320 319 317 313 314 318 320 319 319 317 316 316 316 316 316 316 315 315 315 315 315 315 315 314 314 315 315 315 315 315 315 315 315 315 314 314 314 314 313 313 313 313 313 312 312 311 311 311 311 311 311 311 310 310 310 310 310 310 310 310 310 310 310 310 310 310 310 309 309 309 309 309 309 309 309 309
314 314 314 314 315 316 317 317 319 321 320 317 315 314 316 319 319 317 316 316 316 316 317 317 316 316 316 316 315 316 316 316 316 315 314 315 315 315 315 315 314 315 315 314 314 313 313 313 313 313 313 313 312 311 311 311 311 311 311 310 310 310 310 310 310 310 310 310 310 310 310 310 309 310 310 309 310 309 309 309 309 309 309 309 309 309
314 315 315 315 314 315 316 317 318 320 318 315 315 315 316 316 316 316 316 315 315 316 317 317 317 317 317 316 316 316 316 316 316 316 315 315 315 314 315 314 314 314 314 314 314 313 313 313 313 313 313 312 312 311 311 311 311 311 310 310 310 310 310 310 310 310 310 310 310 309 309 309 309 309 309 309 309 309 309 309 309 309 308 308 308 308
314 314 315 315 314 314 316 316 316 316 315 315 316 316 315 315 315 315 315 315 315 316 316 317 317 317 317 317 317 316 316 316 317 316 316 316 316 315 315 315 315 314 314 314 314 313 313 313 313 312 312 312 311 311 311 310 310 310 310 310 310 310 310 310 310 310 309 309 309 309 309 309 309 309 309 309 309 309 309 308 308 308 308 308 308 308
313 312 313 315 315 314 314 314 313 313 312 313 315 316 316 316 316 315 315 315 315 316 316 316 316 316 316 317 317 317 317 317 317 317 317 317 316 315 314 314 314 313 313 313 313 313 312 312 312 312 312 312 311 311 310 310 310 310 310 310 310 310 310 310 309 309 309 309 309 309 309 309 309 309 309 309 309 308 308 308 308 308 308 308 308 308
313 312 312 314 315 315 314 313 313 313 312 312 313 314 315 315 315 314 314 314 314 315 315 315 315 316 316 316 316 317 317 316 316 317 317 316 316 314 313 313 313 313 313 313 312 312 312 312 312 312 311 311 311 310 310 309 309 309 309 309 309 310 309 309 309 309 309 309 309 309 309 309 309 309 309 309 309 308 308 308 308 308 308 308 308 308
313 312 312 313 314 314 315 314 312 312 312 312 312 313 313 314 314 314 314 314 314 314 315 315 316 316 315 315 316 316 316 316 316 316 316 316 315 314 313 313 313 313 313 312 312 312 311 311 311 311 311 311 310 310 309 309 309 309 309 309 309 309 309 309 309 309 309 309 309 309 309 309 308 308 309 308 308 308 308 308 308 308 308 308 308 308
311 312 314 314 313 313 314 313 312 312 313 312 312 312 312 313 313 313 313 314 313 314 315 315 315 314 314 315 315 315 315 315 315 315 315 315 314 314 314 313 313 312 312 312 311 311 311 311 310 310 310 310 310 309 309 309 309 309 309 309 309 309 309 309 309 309 309 309 309 309 308 308 308 308 308 308 309 308 308 308 308 308 308 308 308 308
311 313 314 314 313 313 313 313 312 313 313 312 312 312 312 312 313 313 314 314 314 315 315 315 313 311 312 313 313 313 314 314 313 314 314 314 314 314 313 313 312 312 311 311 311 310 310 310 310 310 310 309 309 309 309 309 309 309 309 309 309 309 309 309 309 309 309 309 309 308 308 308 308 308 308 308 308 308 308 308 308 308 308 308 307 307
311 312 312 313 313 313 313 312 312 313 313 313 312 313 313 313 313 313 314 314 315 315 315 315 313 312 311 312 312 312 312 312 313 312 312 312 312 312 312 312 311 311 311 310 310 310 309 309 309 309 309 309 309 309 309 309 309 309 309 308 308 308 309 309 309 309 309 308 308 308 308 308 308 308 308 308 308 308 308 308 308 307 307 307 307 306
Wind_Speed
15 7 6 8 9 12 14 13 12 10 8 8 8 8 7 6 5 4 5 8 11 8 7 10 10 10 9 8 10 16 19 20 21 20 21 21 21 23 23 24 25 25 25 23 24 26 25 25 25 25 24 24 24 26 27 28 28 28 27 28 29 27 26 26 27 29 32 35 37 38 38 37 37 36 36 35 35 34 34 34 34 35 34 33 31 30
13 8 7 10 11 12 14 13 14 13 7 4 5 7 7 7 4 2 5 6 6 3 5 8 9 11 10 7 11 16 15 17 20 20 21 23 23 23 24 25 24 23 23 21 22 24 25 26 26 25 25 25 25 26 27 28 28 27 27 28 29 28 27 27 28 29 31 33 34 36 37 37 37 37 37 36 35 35 35 35 36 37 36 35 33 32
9 8 8 12 12 11 12 12 13 13 9 3 3 4 5 6 3 4 6 5 3 0 3 4 7 9 8 7 10 13 13 15 21 23 24 26 26 27 26 26 26 25 24 23 23 24 26 27 27 26 26 25 26 26 27 27 27 27 27 28 29 30 29 28 28 29 31 31 32 33 34 34 35 36 36 36 35 34 34 35 36 37 37 36 36 34
7 7 11 15 12 11 12 12 11 11 9 3 2 4 3 4 4 2 4 5 4 2 3 3 5 7 7 7 8 13 18 19 22 27 28 28 29 31 31 29 29 28 28 27 26 26 26 26 26 26 25 25 26 27 28 28 28 29 28 28 29 30 29 29 29 30 30 30 30 31 31 32 33 34 34 35 36 36 36 36 36 38 38 38 37 36
4 7 15 16 13 13 13 12 11 8 6 5 5 6 3 4 3 3 4 5 3 3 3 2 4 6 7 8 9 13 19 22 24 27 28 31 32 32 32 32 31 30 30 30 30 30 29 28 27 27 25 24 25 27 28 29 30 29 29 28 29 30 30 30 30 31 30 30 30 30 30 30 32 33 34 36 37 38 37 37 37 38 38 39 38 36
5 13 20 16 13 14 12 11 12 8 5 5 7 7 5 6 3 7 6 3 0 3 4 3 2 5 4 7 9 8 10 16 21 23 25 30 31 29 30 32 33 32 31 32 32 32 32 30 29 28 27 26 25 25 26 28 29 30 29 29 30 30 31 31 31 31 32 32 31 31 32 32 33 34 35 36 37 38 37 37 37 37 38 39 38 37
5 16 20 15 14 16 13 11 12 10 6 4 6 9 8 4 2 6 6 3 1 3 3 4 3 4 5 7 7 5 5 10 13 16 22 27 28 28 30 32 33 34 33 32 32 32 33 32 31 30 30 30 28 25 24 25 26 27 29 30 30 31 32 32 32 33 33 33 34 34 34 34 34 35 36 35 36 36 36 36 36 37 37 38 38 38
9 18 18 17 17 14 12 11 11 12 8 3 3 8 9 4 3 4 5 3 2 0 1 3 2 2 6 8 8 7 9 11 10 11 16 23 27 28 31 33 35 37 36 35 34 33 32 32 32 32 32 31 29 27 25 26 26 26 27 28 29 30 31 32 33 33 34 34 35 35 35 35 36 36 36 35 35 35 35 35 36 36 36 37 37 37
12 18 17 19 16 11 12 9 9 12 8 3 3 5 7 5 3 4 3 3 0 3 2 4 3 2 6 6 6 6 10 14 14 12 10 16 25 28 31 35 36 36 37 38 38 38 36 35 35 35 34 32 31 29 28 27 26 26 27 27 28 29 29 31 32 33 34 34 35 35 36 36 36 37 36 35 35 34 34 35 36 36 36 36 36 36
8 15 18 16 11 10 11 7 9 11 6 3 2 5 6 3 4 4 2 1 1 1 4 5 5 3 5 5 5 5 9 13 12 9 8 14 24 29 33 34 33 32 32 34 37 40 40 39 38 37 36 34 32 31 30 28 26 25 26 27 27 28 29 30 32 33 34 34 35 36 36 36 36 37 37 36 35 35 35 36 36 37 37 36 36 36
2 8 15 13 10 10 8 5 8 11 9 6 5 7 7 4 5 3 1 4 2 3 5 8 9 5 3 5 6 5 7 9 8 5 7 13 21 28 32 32 31 29 29 30 31 33 35 36 37 36 35 34 33 32 32 31 28 26 26 26 27 27 29 30 31 33 33 34 35 36 37 36 36 37 37 36 36 36 36 37 37 36 36 37 37 36
3 6 8 7 9 10 7 3 5 10 13 9 5 6 5 3 4 2 2 3 1 4 4 8 11 9 6 5 5 7 7 8 7 6 6 9 13 18 23 26 28 27 27 27 26 26 28 30 32 34 34 33 33 33 33 33 31 29 27 27 27 27 28 30 32 33 34 35 36 36 37 38 37 37 37 37 37 37 37 37 37 36 36 36 37 37
5 6 4 6 7 11 10 5 3 7 9 6 5 7 5 2 2 1 2 1 4 4 2 4 6 7 8 7 7 10 7 7 8 8 7 7 8 10 11 14 17 19 20 21 21 21 24 27 28 30 30 30 31 32 33 33 32 32 30 28 28 27 28 30 32 34 34 36 36 37 38 39 38 38 38 38 38 38 38 38 37 37 37 36 37 38
4 2 2 5 4 11 13 9 5 5 7 7 7 8 6 4 3 4 4 2 4 3 2 1 1 2 5 4 10 16 16 13 11 12 13 10 8 8 5 7 9 12 14 16 17 19 20 23 24 24 25 26 27 28 30 31 32 31 30 29 28 27 27 29 31 33 35 36 37 37 38 39 39 40 39 39 39 39 39 38 38 38 38 38 38 39
9 2 6 9 6 12 13 10 9 6 6 7 5 5 6 5 5 5 4 3 3 0 2 1 2 4 3 2 9 15 18 17 13 12 16 15 12 9 7 8 10 12 13 13 13 15 16 17 17 17 18 19 21 22 24 26 28 28 28 27 27 25 25 27 28 30 32 34 35 36 38 38 39 40 40 40 40 39 39 39 39 39 38 38 39 38
11 5 8 9 6 14 14 9 12 10 5 5 3 5 6 5 3 2 2 3 4 2 1 3 3 4 4 5 7 7 9 12 12 11 14 17 15 12 12 12 12 14 16 16 14 13 13 14 14 14 14 16 17 19 20 22 24 25 25 25 24 23 22 23 24 25 26 28 30 33 35 37 39 40 40 40 40 40 40 39 40 40 39 38 38 37
10 4 9 8 2 13 15 10 14 14 7 4 5 7 5 2 4 3 1 0 2 2 3 4 4 4 2 7 9 9 8 8 9 10 13 16 14 12 14 14 15 15 16 17 16 14 14 14 13 13 13 15 16 18 20 23 24 25 25 25 24 23 23 23 24 25 25 26 28 30 32 35 36 38 38 39 39 38 38 38 38 38 38 38 38 37
8 1 3 8 5 10 10 8 12 11 6 6 7 7 4 4 3 2 1 0 1 3 3 4 6 4 3 5 6 9 10 8 8 9 10 12 13 14 16 16 16 14 11 12 14 14 14 13 13 13 13 14 16 18 20 24 27 28 27 26 25 25 25 25 25 26 26 27 27 28 29 31 32 33 35 36 36 36 36 36 36 36 37 38 38 38
9 4 3 4 7 8 5 6 9 6 2 4 5 7 5 0 2 4 3 2 4 4 4 4 7 5 6 5 2 6 10 8 8 8 8 10 13 17 19 18 17 15 12 12 13 14 14 13 14 14 14 16 18 20 20 22 26 29 28 26 24 24 23 24 25 24 25 25 24 24 24 25 26 27 29 30 31 32 33 34 34 35 36 37 37 37
9 6 1 3 3 6 4 5 9 7 2 1 3 6 5 2 3 5 3 2 3 4 4 3 3 4 7 7 6 8 10 10 10 8 8 10 16 20 21 19 18 16 15 15 13 13 14 15 16 15 16 16 17 17 16 16 19 23 25 24 22 21 21 21 21 20 20 20 20 19 19 19 20 21 22 24 26 28 30 31 32 34 35 34 35 35
7 6 4 1 1 5 7 7 10 13 9 4 6 9 6 3 2 1 3 2 2 3 3 4 4 5 5 6 9 11 11 11 11 8 7 11 16 18 17 15 14 14 15 15 13 13 15 17 17 16 16 15 13 13 12 11 13 16 19 19 17 16 16 16 16 16 16 16 16 16 16 16 17 18 19 21 23 26 27 29 30 32 33 33 33 33
7 6 7 5 5 8 9 6 5 9 10 8 7 8 8 6 3 2 4 5 3 3 3 3 5 7 5 3 7 9 8 9 11 9 7 12 15 14 12 12 11 12 13 14 14 16 16 17 16 15 14 13 11 12 11 10 10 12 13 13 12 11 11 12 12 12 13 13 13 14 14 15 16 17 19 20 22 24 26 27 29 29 31 31 31 30
5 5 7 6 5 5 3 2 3 2 6 8 5 5 7 6 5 6 6 5 4 3 2 1 4 6 5 1 3 5 4 6 12 12 9 11 14 12 10 9 8 9 11 12 14 16 17 16 15 13 12 11 11 10 10 9 9 9 9 9 8 8 8 8 8 9 9 10 11 12 13 14 15 16 17 19 20 22 23 25 26 27 29 30 30 30
5 5 6 5 2 2 3 2 3 5 3 6 7 7 8 9 10 8 4 3 4 4 3 3 5 6 5 4 4 4 6 7 7 12 14 14 13 11 9 7 6 8 10 12 14 15 16 15 14 13 12 11 10 10 9 8 8 8 7 7 6 5 6 6 6 7 8 9 10 11 13 14 14 15 16 17 18 19 20 21 22 24 26 28 29 30
5 6 8 8 4 2 3 2 1 2 4 7 10 11 10 11 11 7 3 1 2 5 6 5 7 7 4 4 4 3 6 6 5 9 13 14 13 11 8 7 7 9 11 12 13 14 15 15 14 13 12 12 11 10 10 9 8 8 7 6 5 5 6 6 7 7 8 10 11 12 13 14 15 15 16 17 17 18 19 19 20 22 23 24 26 27
6 6 9 11 11 9 9 9 9 8 8 6 8 12 14 14 12 9 5 3 4 7 7 5 10 7 1 3 4 1 4 5 6 8 10 11 11 10 9 9 9 10 11 12 12 13 15 15 15 14 13 13 13 12 12 11 10 9 8 7 7 7 7 7 7 8 10 11 12 13 13 14 15 16 17 18 19 19 19 20 21 21 22 23 23 24
3 5 11 12 13 14 11 8 7 8 8 8 10 13 15 14 12 8 5 7 10 8 4 7 13 11 5 4 6 5 6 6 7 8 10 11 11 11 10 9 9 10 10 11 12 14 16 17 16 17 16 15 15 13 12 11 10 10 9 9 8 8 8 8 9 10 11 12 13 14 14 14 15 16 18 19 20 20 20 21 21 21 22 22 22 23
3 6 13 13 14 14 8 7 11 12 13 15 15 15 15 15 14 11 11 14 12 6 7 15 17 15 13 8 7 8 8 7 6 9 14 15 13 13 11 10 11 12 12 14 16 18 19 19 18 18 18 17 15 14 13 12 11 11 10 9 9 9 9 10 11 12 13 14 15 15 15 15 16 17 17 18 19 20 20 20 20 20 21 21 22 22
4 8 13 12 13 11 8 11 13 14 13 14 17 17 17 18 18 17 18 18 13 8 14 19 14 15 18 11 9 9 8 9 10 12 15 15 14 13 13 13 16 17 18 19 21 22 22 21 20 19 18 18 16 14 14 13 12 11 11 10 10 10 11 11 12 13 14 15 16 16 16 17 18 18 18 18 19 19 19 19 19 19 19 20 21 21
5 10 11 11 11 9 10 12 13 14 13 13 17 18 17 19 21 22 20 18 15 14 21 20 11 15 19 10 10 13 14 13 12 13 14 15 16 15 16 18 20 20 22 24 24 24 24 22 21 19 19 19 17 15 14 13 12 11 11 11 12 12 12 13 13 14 15 16 16 18 19 20 20 20 19 19 18 18 18 18 18 18 18 19 19 20
7 10 10 10 9 8 11 12 13 16 15 15 18 19 18 18 19 21 22 19 16 18 25 21 14 18 16 8 9 16 17 12 9 14 17 18 19 18 19 21 22 23 25 25 26 25 24 24 22 21 21 19 17 15 13 12 12 12 12 12 13 13 13 14 14 15 15 16 17 18 20 21 21 20 20 19 18 17 17 17 17 17 17 17 18 18
7 8 8 8 7 8 11 14 14 13 12 12 15 18 21 22 21 23 23 19 16 19 22 19 16 17 10 5 7 11 12 11 11 17 20 21 22 23 23 24 24 26 27 27 28 28 27 27 25 23 22 20 17 16 14 13 13 13 12 13 14 14 15 15 15 15 15 16 17 18 19 20 20 20 20 19 18 17 16 16 16 16 16 16 16 15
8 8 6 7 9 11 11 11 10 9 8 9 15 22 27 27 23 20 18 17 18 20 18 15 17 16 4 5 8 9 8 10 13 20 24 25 27 27 27 27 27 29 30 28 28 30 31 31 29 27 25 22 20 18 16 15 15 13 13 14 15 16 17 16 16 15 16 16 17 18 19 19 19 19 19 18 18 17 17 17 17 16 15 15 14 14
9 9 6 7 9 10 9 10 7 8 12 12 14 21 25 24 22 20 19 20 20 19 16 16 19 16 5 5 9 10 12 15 19 25 29 30 32 32 30 28 27 29 30 28 28 30 32 33 32 30 28 25 23 22 19 17 16 15 14 16 17 18 18 18 17 16 17 18 18 18 19 19 19 19 18 17 17 17 17 17 17 16 16 15 14 13
10 10 5 6 6 5 8 10 6 11 14 8 4 12 17 19 21 22 22 22 22 23 25 25 24 17 10 11 14 14 18 22 24 29 33 34 37 36 33 30 28 27 28 29 30 31 33 34 34 33 31 28 26 26 24 21 20 18 18 18 18 20 20 19 18 18 18 19 19 20 20 19 19 19 18 17 17 17 17 17 17 17 16 16 15 14
7 9 6 4 4 3 6 9 8 6 4 2 3 11 16 17 18 17 19 24 25 25 24 23 24 18 14 19 22 19 19 22 24 32 39 40 38 37 33 29 26 26 28 32 33 33 32 34 35 35 33 30 28 28 27 26 24 22 20 19 19 21 22 21 20 19 19 20 21 21 21 20 20 19 19 19 18 18 18 18 17 17 16 16 15 15
4 6 7 6 5 3 5 8 5 2 2 1 6 11 15 15 16 14 15 21 19 16 15 18 22 20 17 21 24 22 20 16 15 29 43 44 38 33 29 26 26 29 35 38 37 36 34 33 35 35 34 32 29 28 28 27 26 23 21 20 21 23 24 23 21 20 21 21 21 21 20 20 20 20 20 20 19 19 18 18 18 18 17 16 15 14
4 3 4 5 6 5 5 6 5 5 7 11 14 14 12 9 10 11 11 15 11 14 21 24 24 23 20 21 22 19 15 9 11 23 33 37 36 32 28 31 37 43 46 45 43 41 39 37 37 36 35 34 33 31 28 26 25 23 22 21 22 23 25 24 23 22 22 21 20 19 18 18 19 20 20 20 19 19 19 18 18 18 18 17 15 15
6 4 1 2 4 7 8 8 8 8 11 15 15 12 11 13 15 12 5 14 14 21 30 29 25 24 21 18 18 15 10 9 17 14 14 22 32 36 37 43 49 51 51 50 48 47 44 41 40 38 36 36 37 34 30 28 27 26 23 22 23 24 25 25 23 22 21 20 19 18 18 18 19 20 21 20 20 20 20 19 19 17 17 16 15 15
6 3 1 2 3 5 8 9 6 5 10 10 7 11 20 25 21 12 4 17 20 24 33 30 24 25 23 19 19 14 10 17 19 7 14 19 32 39 44 49 52 53 53 52 50 48 45 42 40 38 38 39 39 35 31 29 28 27 25 23 23 25 25 25 23 22 21 20 19 19 19 19 20 21 21 21 21 20 20 19 18 17 16 15 14 14
4 3 3 4 4 4 8 8 5 5 7 3 8 18 28 28 15 7 17 20 12 13 31 36 31 28 27 25 21 17 25 37 31 13 13 22 32 38 45 50 50 52 53 52 50 48 46 45 43 42 42 42 40 36 32 29 28 28 26 25 26 26 25 24 23 21 21 20 19 18 18 18 19 19 20 20 19 19 18 17 16 15 14 13 13 12
4 2 3 5 4 3 4 4 3 5 5 6 17 27 30 20 9 15 15 10 5 13 29 38 37 32 29 30 30 31 39 47 42 27 22 27 35 40 44 47 48 51 52 51 50 47 46 47 47 45 45 44 41 37 33 30 29 29 29 29 28 26 25 23 22 21 20 18 17 16 16 16 16 17 17 16 16 15 14 13 12 11 11 10 10 9
5 4 3 4 4 3 3 4 5 6 5 15 22 21 19 14 10 8 4 11 8 8 19 27 32 33 32 34 38 42 45 46 46 42 39 40 44 45 43 43 45 48 50 50 49 46 45 46 46 45 46 46 43 39 34 32 31 31 32 32 29 26 25 23 22 20 18 16 16 15 15 14 14 14 14 13 13 11 10 9 8 7 7 6 6 6
5 5 3 3 5 5 5 7 6 4 4 23 24 12 15 14 0 5 2 3 3 8 13 17 22 27 31 35 39 43 45 46 47 46 43 43 46 47 46 46 46 46 47 47 46 44 43 43 43 43 44 45 43 39 36 34 33 33 33 32 29 27 25 23 21 19 17 16 15 14 13 13 13 12 12 11 10 9 8 7 7 6 5 5 4 4
8 9 6 4 6 6 6 8 8 4 6 24 27 20 23 25 13 8 4 2 6 10 12 13 15 17 23 31 35 38 41 43 44 44 42 44 48 49 50 52 51 48 45 43 41 39 38 38 39 40 41 42 42 41 38 35 33 33 33 31 29 27 25 23 20 18 16 15 14 13 13 13 13 12 11 10 9 8 8 7 7 7 6 6 5 5
10 13 9 4 3 5 9 12 13 12 13 22 27 22 22 29 30 25 15 6 6 10 10 10 12 14 17 23 27 31 37 40 39 37 38 43 47 47 46 46 45 43 42 40 37 34 32 33 35 36 38 40 42 41 38 34 32 32 30 29 28 26 24 21 19 17 16 15 14 14 14 13 13 12 11 11 10 9 9 8 8 7 7 6 6 6
6 11 9 5 3 6 10 12 14 20 22 22 23 24 23 22 22 22 20 14 9 8 8 8 10 13 17 21 25 29 33 34 34 33 35 41 44 42 38 37 37 40 42 40 36 32 30 31 33 34 37 40 40 38 34 31 31 30 28 27 26 24 21 19 18 17 16 15 15 15 14 13 13 13 12 12 11 10 9 9 8 8 8 8 8 8
7 11 9 7 7 8 11 12 15 23 29 29 30 31 29 25 19 15 16 18 16 14 14 15 18 20 22 24 27 28 29 30 32 34 36 38 40 39 36 36 36 38 40 39 36 33 31 32 32 33 35 36 34 31 30 31 31 30 28 26 24 22 20 19 18 17 16 16 15 15 15 14 14 13 13 12 11 10 10 9 9 9 9 9 10 10
9 11 8 6 8 10 13 14 13 13 19 29 36 33 23 18 15 12 12 16 17 17 18 21 23 24 24 26 27 29 30 31 31 32 33 35 38 38 37 36 36 36 36 37 36 33 32 31 30 30 30 30 29 28 30 31 30 29 28 25 23 21 20 19 18 17 17 17 17 16 16 16 15 14 13 12 12 11 10 10 10 10 10 11 11 12
8 7 6 7 9 10 11 16 17 11 11 21 29 30 27 23 19 18 20 21 23 24 26 26 25 22 23 25 26 27 30 30 29 31 34 36 37 37 36 35 35 34 34 34 32 31 30 29 28 28 28 28 28 29 30 31 30 28 26 24 22 21 20 19 18 18 18 18 18 17 17 16 15 15 14 13 13 12 12 11 12 12 12 12 13 14
9 9 8 8 10 11 16 25 24 14 13 21 23 25 34 38 34 32 34 33 31 30 30 31 29 26 24 24 23 23 27 28 28 30 33 35 35 34 33 33 33 33 33 33 31 31 30 28 28 28 28 28 30 30 31 31 30 28 26 24 23 21 20 20 19 18 18 18 18 18 17 16 15 15 14 13 13 13 13 13 13 12 13 13 13 13
Wind_Direction
165 163 197 195 188 188 193 201 209 209 197 200 202 199 218 233 229 205 151 163 178 184 206 215 234 246 241 238 232 225 218 217 223 225 229 231 229 226 221 220 223 227 231 231 231 235 237 236 237 237 237 238 237 236 236 236 237 239 237 237 240 243 243 242 239 234 231 229 229 230 233 235 237 238 239 239 239 238 239 241 243 245 245 244 243 242
170 197 204 187 186 189 195 201 211 221 218 213 218 202 206 223 231 142 131 165 170 178 222 221 242 249 242 243 239 231 222 218 219 219 223 226 227 229 225 220 222 228 232 233 231 232 234 236 237 237 236 236 236 235 236 236 239 242 242 240 241 244 244 243 244 241 239 237 235 234 236 238 240 241 243 245 244 243 243 244 245 247 248 248 248 246
186 214 191 180 189 191 203 210 213 225 232 236 259 239 211 199 187 98 114 147 131 105 250 250 266 262 253 250 242 234 232 231 227 225 226 226 227 229 228 224 224 228 231 230 231 231 231 233 236 238 237 236 237 237 237 238 239 241 242 242 241 243 245 245 245 245 244 243 242 241 241 241 243 244 247 249 250 248 247 247 247 249 250 250 250 249
193 204 177 177 193 197 204 216 215 224 232 213 224 255 235 186 194 157 150 148 135 217 285 326 293 279 272 265 257 243 242 245 238 235 235 232 231 231 231 230 228 228 229 228 231 233 232 232 233 234 235 236 236 237 237 237 237 238 240 241 242 243 245 246 246 247 247 245 245 244 244 244 244 246 247 249 250 249 248 247 248 249 249 249 249 249
176 166 168 175 197 203 199 210 214 218 224 195 207 239 232 211 212 103 133 155 144 241 267 335 303 279 252 243 251 242 235 241 240 237 237 234 234 234 232 233 233 231 230 228 229 232 233 232 232 231 234 236 237 237 237 237 238 238 239 241 242 244 246 247 248 249 248 246 244 243 241 241 242 243 244 246 248 248 247 248 248 249 249 250 249 248
180 161 170 178 198 205 201 209 209 208 218 205 212 227 237 248 204 116 130 145 91 261 203 163 270 280 255 236 242 236 221 231 234 232 234 233 232 233 232 233 235 236 234 230 230 232 234 234 234 233 234 238 239 239 239 240 241 241 242 243 244 245 246 247 249 249 248 246 245 244 242 241 241 244 246 249 252 252 252 253 252 251 251 252 253 250
184 167 174 184 191 201 209 211 206 202 213 226 209 208 222 262 76 122 144 135 250 258 180 167 216 272 300 279 265 273 257 241 230 226 230 230 229 230 232 234 235 235 233 228 228 230 232 234 234 233 234 237 239 239 241 241 242 243 243 244 245 246 248 249 249 249 249 247 246 246 246 247 247 250 254 256 257 257 258 259 257 256 256 255 255 254
178 174 178 185 188 197 209 210 201 193 196 244 232 189 194 200 114 139 157 176 221 81 157 210 200 265 284 273 265 279 283 271 248 231 225 222 223 225 231 234 235 235 232 227 224 223 225 229 232 234 236 238 239 240 241 240 239 240 241 243 245 247 249 251 250 250 251 251 250 248 248 249 250 252 255 256 255 256 257 258 259 259 259 259 258 258
176 185 184 183 187 197 206 204 180 175 183 255 262 167 168 185 155 133 148 215 269 61 246 217 152 251 263 261 253 234 252 263 251 238 223 213 217 221 228 233 235 237 237 233 230 226 225 227 232 237 241 242 243 243 242 241 240 240 240 242 244 246 249 251 251 250 252 254 254 253 251 251 252 253 254 253 252 253 253 255 259 260 260 260 260 261
182 193 188 183 192 195 195 194 166 169 186 225 195 103 94 89 95 101 145 175 62 358 231 189 158 223 258 254 243 210 227 249 248 239 228 216 217 220 225 231 234 238 241 240 237 235 233 233 236 239 242 243 244 245 244 243 242 239 238 239 242 246 248 250 250 250 251 252 253 254 253 253 254 254 252 251 250 250 251 253 256 258 259 261 262 263
148 175 185 189 199 189 175 180 175 170 160 146 124 93 78 59 74 68 27 69 47 268 212 179 176 192 257 242 217 210 218 229 235 231 234 227 220 221 223 227 233 237 240 242 242 241 240 240 239 238 239 241 243 244 244 243 242 239 238 238 241 244 247 249 250 251 251 252 252 253 254 255 256 255 253 251 251 251 252 253 255 256 258 261 263 264
114 153 181 174 179 172 139 127 158 150 146 138 129 118 98 66 64 47 25 71 228 244 192 185 183 183 227 233 217 241 221 198 214 214 226 236 220 217 219 223 232 236 238 240 240 241 239 237 237 235 236 239 241 242 243 243 242 241 243 244 244 245 247 249 249 249 251 251 252 254 254 254 255 254 253 254 255 254 254 256 258 257 257 258 260 262
160 177 167 117 151 162 137 109 107 140 157 156 147 139 127 119 107 181 185 169 231 242 241 210 187 195 233 239 248 271 250 193 204 210 230 246 202 188 201 211 221 226 227 228 231 235 235 235 235 234 235 239 242 242 243 244 243 244 247 248 247 247 248 249 248 249 249 249 250 252 253 253 253 252 253 254 256 257 258 258 259 260 259 258 259 261
156 274 179 138 160 174 162 156 163 169 177 177 162 157 162 158 172 206 197 213 237 246 274 238 132 237 268 250 226 245 248 231 223 218 226 234 198 174 189 208 214 217 220 222 226 231 234 235 236 236 238 239 243 244 243 245 245 246 249 248 247 248 247 246 246 248 248 249 250 249 250 251 251 251 252 253 255 257 258 259 259 260 260 260 261 263
170 243 192 176 168 177 184 179 163 144 162 185 171 159 180 180 187 196 184 204 206 42 313 245 159 196 211 233 214 228 245 247 249 235 219 220 219 211 211 219 223 225 229 229 226 229 232 231 232 234 236 236 238 240 240 242 243 244 245 244 244 245 245 246 247 247 249 251 253 252 252 252 252 252 252 252 253 254 255 256 256 256 257 260 262 264
184 201 178 174 162 171 181 172 148 132 152 199 163 167 206 205 173 159 175 203 166 101 280 222 237 221 205 273 260 240 254 251 249 242 214 207 214 218 221 228 234 236 237 234 229 233 235 233 231 231 233 233 233 234 236 239 240 240 241 240 241 241 243 247 249 251 253 255 256 256 255 255 253 253 253 253 253 252 252 252 253 254 256 259 262 264
188 185 158 157 161 179 178 167 161 159 159 186 188 190 199 117 101 120 218 304 104 214 228 187 249 282 276 283 263 228 238 244 235 233 216 204 202 212 229 238 243 246 244 236 234 238 238 235 235 233 234 235 236 237 239 239 239 239 238 238 239 241 243 246 248 251 253 254 254 254 255 254 253 253 254 255 256 256 254 253 255 257 258 261 262 262
168 79 166 167 158 182 177 149 167 176 148 160 193 182 123 48 49 114 187 71 132 240 243 181 219 240 211 262 254 213 218 230 228 221 214 211 206 212 227 235 242 250 248 233 230 234 236 236 235 232 234 236 237 239 240 239 238 237 237 238 240 243 246 249 251 253 254 255 256 256 256 256 257 256 257 258 260 260 260 259 259 259 260 262 262 260
150 94 328 204 160 168 165 131 168 202 166 165 184 156 134 138 215 172 182 192 187 225 261 222 216 213 209 224 220 198 206 216 226 212 199 207 205 211 225 232 239 247 243 229 227 232 233 233 231 230 235 238 238 239 242 244 241 238 237 240 244 249 252 255 256 257 259 260 261 261 260 259 259 259 260 260 261 261 260 259 258 256 257 258 259 258
158 146 20 262 181 161 171 170 181 191 179 202 185 169 178 213 184 180 194 185 170 204 253 260 220 225 225 207 188 197 198 202 214 207 198 200 201 213 227 230 233 239 235 230 232 234 229 225 229 233 239 244 243 244 249 251 246 239 237 241 248 253 255 255 256 257 258 261 262 264 265 265 265 265 265 264 264 263 262 259 256 254 253 254 254 255
158 157 135 171 191 162 184 202 194 185 179 180 184 183 189 186 128 155 213 214 152 176 233 253 248 257 244 202 197 201 193 196 206 205 206 202 200 209 214 210 215 222 224 224 225 230 226 223 229 236 241 246 245 242 243 243 239 233 233 238 244 248 250 252 254 256 258 261 265 268 271 272 272 271 269 268 266 265 264 261 257 253 251 250 251 253
170 167 146 149 179 186 194 198 182 183 184 181 186 185 180 177 138 141 211 214 189 190 198 209 251 271 266 202 186 189 183 191 199 197 199 195 187 183 180 183 197 209 215 218 217 223 226 226 232 239 242 241 234 228 226 224 224 222 224 229 235 240 246 249 253 257 261 264 268 270 271 270 268 266 265 264 264 263 262 261 258 255 252 251 250 251
136 118 135 142 170 184 182 134 67 86 175 182 201 192 174 176 174 184 208 202 195 216 160 152 277 277 270 269 123 153 147 163 188 182 165 166 166 164 172 184 198 209 214 217 214 218 224 228 233 235 231 223 214 210 211 212 212 213 215 218 223 231 237 244 252 257 262 265 266 268 268 267 268 268 267 266 266 266 264 262 260 258 257 256 255 254
99 103 132 119 97 54 50 40 14 28 107 179 209 202 183 192 197 200 209 164 187 218 173 189 257 262 278 324 32 73 92 106 154 158 144 149 160 169 181 188 202 210 212 214 216 219 224 227 224 217 209 200 195 195 196 198 199 199 200 203 209 221 231 241 251 256 262 266 269 271 273 275 276 275 275 273 272 272 271 269 266 263 261 259 259 259
165 146 143 133 139 133 85 82 245 233 203 201 206 201 197 198 196 209 245 181 222 225 177 185 242 242 265 317 351 49 104 115 142 157 156 164 174 178 183 194 210 214 214 216 220 222 220 213 203 195 189 182 179 179 179 179 180 182 184 189 201 216 228 241 250 258 266 269 273 277 279 282 284 282 282 280 278 277 275 273 272 268 265 263 262 261
174 156 157 162 171 176 177 186 194 198 202 200 193 194 201 203 192 197 222 220 238 223 176 190 241 243 291 314 282 221 145 162 183 184 184 184 183 182 188 206 216 218 221 219 217 215 204 192 183 177 172 170 170 169 170 174 176 178 185 194 207 221 231 243 253 260 268 272 276 281 282 285 287 287 288 287 285 284 281 279 277 274 272 269 267 264
146 173 182 188 190 190 192 181 140 132 159 181 188 190 198 205 196 188 197 214 225 221 195 227 241 245 250 248 242 217 191 198 198 192 198 196 190 190 197 212 220 220 219 211 204 199 187 175 170 168 166 167 170 173 175 179 184 189 199 209 218 230 239 247 256 263 271 278 281 284 288 290 291 292 292 291 290 289 287 286 284 281 278 274 271 268
111 190 191 198 206 203 187 144 128 143 173 186 187 189 193 195 194 196 207 217 215 202 234 237 233 241 245 223 219 229 211 207 206 196 202 203 197 197 201 210 216 211 205 198 194 187 176 170 168 168 172 173 175 181 184 188 196 203 213 222 228 237 245 250 260 268 274 279 283 287 290 292 293 294 293 292 291 289 289 290 288 286 283 278 274 270
142 197 192 192 204 200 165 152 155 166 182 186 185 190 193 190 194 205 215 219 205 194 236 236 217 233 245 223 210 229 212 203 208 199 201 201 195 198 202 208 212 205 195 191 187 180 174 173 173 175 179 183 185 190 193 198 207 213 223 232 237 244 250 255 264 272 277 282 286 289 291 291 292 294 294 293 292 290 289 288 287 285 282 278 276 271
175 196 188 179 195 196 173 167 164 168 176 183 187 191 192 191 199 209 217 220 208 213 240 240 221 237 244 217 200 220 217 216 209 188 188 192 192 200 206 211 213 203 193 190 185 180 179 179 181 184 187 191 195 199 201 205 213 221 229 237 243 247 252 258 264 271 276 282 286 288 290 291 292 293 292 292 291 288 286 284 283 282 280 278 276 272
200 194 178 167 189 206 192 183 176 173 176 183 188 190 190 192 202 212 218 217 208 220 237 239 239 251 246 204 195 212 208 202 182 175 189 197 199 204 209 213 213 201 194 193 188 187 189 190 191 193 195 199 203 204 208 214 220 229 236 242 248 250 253 258 264 271 276 281 285 285 287 289 289 290 290 290 288 285 283 282 281 281 281 280 279 276
201 189 165 161 190 210 199 190 184 175 171 183 192 189 189 195 203 209 215 212 203 217 233 235 238 248 240 172 192 205 188 178 176 184 197 205 206 209 211 213 210 200 196 196 197 199 202 202 203 203 205 209 211 213 219 224 227 234 243 249 251 248 250 255 260 268 274 277 280 281 284 285 285 286 286 287 288 286 285 285 284 284 282 281 281 279
189 180 157 160 195 211 196 175 162 150 158 196 202 194 194 199 204 209 216 215 209 213 222 227 230 235 217 138 196 206 186 189 192 192 201 209 210 212 214 212 207 201 198 200 207 212 215 214 214 215 218 221 223 224 228 230 233 240 247 252 251 247 249 251 256 264 269 273 277 279 281 282 280 280 281 283 286 288 288 288 286 285 284 281 280 279
183 180 167 164 197 213 176 139 127 165 196 218 212 196 195 198 201 209 218 215 213 217 225 233 236 234 215 173 197 202 204 210 207 205 209 213 212 213 217 214 208 204 203 207 215 221 224 223 222 224 227 230 231 231 229 229 235 242 245 248 250 251 251 250 253 260 266 271 276 277 277 277 274 274 275 278 282 284 285 286 285 283 282 278 276 274
182 179 171 169 196 197 143 137 170 205 215 235 192 174 190 200 202 210 223 221 215 218 224 233 238 233 215 212 212 210 216 219 218 219 221 220 216 214 214 213 210 207 211 218 224 228 228 228 228 229 230 232 235 234 232 235 241 244 245 246 249 251 250 248 250 258 266 271 275 276 276 274 271 270 271 273 276 279 281 282 282 281 279 276 273 269
192 181 168 166 178 147 142 170 195 213 240 332 110 158 181 203 204 206 228 231 220 217 223 233 241 237 224 226 224 220 227 231 231 232 229 224 222 219 214 212 210 212 223 232 234 234 234 234 233 234 234 236 239 240 241 242 245 246 245 244 246 247 246 245 250 259 267 273 277 277 276 272 268 267 268 269 271 273 276 278 279 279 277 275 275 272
239 192 177 178 179 153 164 186 200 305 352 213 206 185 180 197 198 193 228 239 223 216 226 236 243 239 228 230 228 223 229 234 241 242 233 225 222 222 217 216 222 229 238 244 245 244 246 247 242 238 237 238 243 249 249 246 244 244 241 240 243 244 243 244 250 259 268 275 278 277 273 268 265 264 264 267 268 269 272 274 276 278 277 275 272 268
258 251 199 189 192 172 160 178 206 236 227 215 216 204 181 175 166 168 227 249 224 202 214 225 233 230 224 224 219 211 207 209 244 248 232 219 219 220 220 226 234 239 243 247 249 248 249 252 248 241 238 239 246 253 253 248 244 241 239 241 243 243 243 245 252 261 270 275 273 269 264 260 259 259 261 263 265 267 268 269 270 273 274 275 273 268
227 259 280 178 192 181 178 194 201 211 229 228 215 191 159 136 122 120 212 253 236 208 210 219 227 226 224 213 195 179 165 209 246 240 185 191 214 219 222 229 234 239 242 245 247 248 249 250 248 244 242 243 248 252 252 249 245 240 241 244 244 244 245 246 253 262 268 267 262 259 258 255 253 254 256 259 262 264 267 269 270 271 273 276 276 274
205 208 210 201 208 189 189 203 205 219 243 236 191 159 151 140 121 101 205 249 247 216 206 214 223 223 219 199 179 170 182 220 237 194 143 196 222 219 220 228 233 240 243 243 243 244 246 247 245 243 245 248 252 253 251 250 245 241 243 246 245 245 246 247 254 260 259 255 254 254 256 254 252 254 255 257 261 264 267 271 274 276 278 279 280 279
196 193 198 199 214 206 201 212 221 241 252 222 136 146 143 132 123 166 215 239 255 186 193 211 222 220 211 194 184 196 218 227 231 208 183 223 230 222 224 231 236 243 246 245 243 243 243 244 244 245 249 253 255 255 251 249 246 243 244 248 247 246 245 247 252 252 248 249 251 253 254 254 255 257 258 261 264 267 270 274 276 278 281 283 286 288
183 188 194 192 199 192 201 224 242 254 250 149 140 145 141 139 187 211 218 268 2 135 178 203 216 217 208 200 204 216 226 232 235 225 212 226 235 235 234 233 236 243 246 244 244 242 240 243 245 247 251 253 253 252 250 247 245 244 248 250 248 244 244 245 246 243 241 244 246 248 251 253 256 258 261 265 267 269 272 275 276 278 281 284 288 292
180 181 192 197 190 168 187 198 205 253 225 149 141 146 158 180 217 218 268 336 5 140 176 195 209 213 206 203 211 221 228 234 237 233 228 230 238 242 240 236 238 244 245 243 242 242 242 244 246 248 251 251 251 249 247 245 245 248 250 248 243 240 240 239 236 234 235 237 238 242 246 249 254 258 260 262 264 264 265 265 264 266 266 269 276 281
187 185 191 198 186 183 206 201 197 279 175 153 154 178 201 198 143 24 291 295 84 136 162 184 205 212 208 208 214 221 227 233 237 238 237 236 239 242 243 243 245 246 247 246 245 245 245 246 246 247 247 248 248 248 246 246 249 250 247 241 237 235 233 229 227 227 228 228 231 236 242 248 253 255 256 255 252 250 245 238 234 234 234 236 242 250
187 189 200 218 203 196 223 225 219 265 195 177 185 207 209 211 241 294 272 181 135 147 160 179 198 204 207 213 217 221 227 233 237 242 244 243 244 244 244 245 246 246 247 248 247 246 245 245 245 245 244 246 247 247 247 249 249 245 238 233 230 228 224 221 221 220 220 223 229 235 241 247 250 250 248 242 235 230 222 217 219 223 227 232 238 246
193 194 203 224 218 216 242 245 234 243 235 212 214 222 214 216 231 241 242 235 188 179 178 185 199 204 209 215 219 225 232 234 237 243 248 247 247 246 244 243 243 244 245 245 244 243 241 239 240 241 243 245 246 246 248 247 242 234 228 225 222 217 215 215 215 215 218 223 228 232 238 242 243 239 231 224 219 215 212 214 220 228 235 242 247 253
199 193 205 217 189 202 234 241 232 236 240 234 236 243 241 236 236 236 240 244 232 213 216 223 234 239 233 226 225 229 233 234 237 244 248 248 247 247 246 244 242 241 242 242 241 238 235 235 238 240 243 245 246 246 243 235 226 220 216 215 212 209 209 211 211 214 219 221 223 228 232 232 228 221 216 214 213 213 216 221 227 235 245 253 259 265
196 180 194 215 208 218 241 242 234 240 244 241 239 241 243 247 251 245 237 241 247 254 258 263 265 256 240 230 229 231 235 239 242 245 248 250 251 250 248 246 244 242 240 239 237 235 234 236 237 239 243 245 244 238 227 217 213 209 205 204 205 204 206 208 210 214 217 218 221 223 222 219 214 211 212 216 218 220 226 232 239 247 256 264 271 277
183 172 173 192 211 235 253 250 245 255 256 246 240 238 238 244 251 250 240 237 240 245 250 255 257 249 236 232 232 234 238 242 244 246 250 253 253 251 249 248 246 243 240 238 237 235 232 231 231 234 238 237 229 219 211 207 205 202 199 198 199 201 203 206 209 212 214 217 219 218 214 212 210 212 218 222 225 230 234 240 248 256 262 269 274 278
183 188 175 184 212 228 239 238 233 233 250 248 239 232 230 230 231 236 238 235 231 232 232 235 240 237 229 228 230 232 236 241 245 249 252 254 255 253 252 251 248 243 239 236 233 229 225 224 227 232 231 223 213 206 203 201 199 196 195 195 197 199 202 204 207 211 214 216 216 213 212 212 213 217 223 226 231 236 241 247 253 258 263 269 272 276
207 212 198 206 227 234 238 240 234 225 243 255 248 234 230 229 227 229 233 233 232 232 231 232 236 236 233 233 236 239 244 251 257 259 260 260 259 257 255 253 250 244 238 231 224 221 220 222 226 227 219 209 203 200 198 197 195 193 193 194 196 198 200 203 206 210 213 215 213 211 213 215 216 221 226 231 237 242 246 251 255 259 265 269 273 277